Change the Weather History Date:

Tuesday, August 12, 2014

  Actual Average (KGAG) Record (KGAG)
Temperature  
Mean Temperature 76 °F -  
Max Temperature 87 °F 92 °F 109 °F (1969)
Min Temperature 64 °F 65 °F 55 °F (1967)
Cooling Degree Days 10    
Growing Degree Days 26 (Base 50)    
Moisture  
Dew Point 58 °F    
Average Humidity 56    
Maximum Humidity 83    
Minimum Humidity 37    
Precipitation  
Precipitation 0.00 in - - ()
Sea Level Pressure  
Sea Level Pressure 30.18 in    
Wind  
Wind Speed 5 mph (East)    
Max Wind Speed 12 mph    
Max Gust Speed -    
Visibility 10 miles    
Events      
Averages and records for this station are not official NWS values.
T = Trace of Precipitation, MM = Missing Value Source: NWS Daily Summary

Daily Weather History Graph

Daily Weather History Graph

Search for Another Location

Airport or City:

Trip Planner

Search our weather history database for the weather conditions in past years. The results will help you decide how hot, cold, wet, or windy it might be!

Date:

Astronomy

Aug. 12, 2014 Rise Set
Actual Time 6:53 AM CDT 8:32 PM CDT
Civil Twilight 6:25 AM CDT 8:59 PM CDT
Nautical Twilight 5:52 AM CDT 9:32 PM CDT
Astronomical Twilight 5:17 AM CDT 10:07 PM CDT
Moon 9:46 PM CDT (8/12) 9:07 AM CDT (8/12)
Length of Visible Light 14h 33m
Length of Day
13h 38m
Waning Gibbous, 94% of the Moon is Illuminated
Aug 12
Waning Gibbous
Aug 17
Last Quarter
Aug 25
New
Sep 2
First Quarter
Sep 8
Full

Hourly Weather History & Observations

Time (CDT) Temp. Heat Index Dew Point Humidity Pressure Visibility Wind Dir Wind Speed Gust Speed Precip Events Conditions
3:35 AM 64.4 °F - 59.0 °F 83% 30.23 in 10.0 mi Calm Calm - N/A   Clear
3:55 AM 64.4 °F - 59.0 °F 83% 30.23 in 10.0 mi Calm Calm - N/A   Clear
4:15 AM 64.4 °F - 59.0 °F 83% 30.23 in 10.0 mi Calm Calm - N/A   Clear
4:35 AM 64.4 °F - 59.0 °F 83% 30.23 in 10.0 mi Calm Calm - N/A   Clear
5:35 AM 64.4 °F - 59.0 °F 83% 30.23 in 10.0 mi East 4.6 mph - N/A   Clear
5:55 AM 64.4 °F - 57.2 °F 77% 30.23 in 10.0 mi East 4.6 mph - N/A   Clear
6:15 AM 64.4 °F - 59.0 °F 83% 30.23 in 10.0 mi East 4.6 mph - N/A   Clear
6:35 AM 64.4 °F - 57.2 °F 77% 30.24 in 10.0 mi East 4.6 mph - N/A   Clear
6:55 AM 64.4 °F - 57.2 °F 77% 30.24 in 10.0 mi East 6.9 mph - N/A   Clear
7:15 AM 64.4 °F - 57.2 °F 77% 30.24 in 10.0 mi ESE 4.6 mph - N/A   Clear
7:35 AM 64.4 °F - 57.2 °F 77% 30.24 in 10.0 mi East 4.6 mph - N/A   Clear
7:55 AM 66.2 °F - 57.2 °F 73% 30.25 in 10.0 mi East 4.6 mph - N/A   Clear
8:15 AM 68.0 °F - 59.0 °F 73% 30.25 in 10.0 mi East 3.5 mph - N/A   Clear
8:35 AM 69.8 °F - 59.0 °F 68% 30.25 in 10.0 mi East 5.8 mph - N/A   Clear
8:55 AM 69.8 °F - 57.2 °F 64% 30.25 in 10.0 mi East 8.1 mph - N/A   Clear
9:35 AM 71.6 °F - 57.2 °F 60% 30.25 in 10.0 mi ESE 6.9 mph - N/A   Clear
9:55 AM 73.4 °F - 55.4 °F 53% 30.25 in 10.0 mi East 9.2 mph - N/A   Clear
10:15 AM 73.4 °F - 55.4 °F 53% 30.25 in 10.0 mi ESE 5.8 mph - N/A   Scattered Clouds
10:35 AM 75.2 °F - 55.4 °F 50% 30.25 in 10.0 mi East 5.8 mph - N/A   Scattered Clouds
10:55 AM 77.0 °F - 55.4 °F 47% 30.25 in 10.0 mi SE 5.8 mph - N/A   Clear
12:35 PM 80.6 °F 80.5 °F 55.4 °F 42% 30.23 in 10.0 mi East 4.6 mph - N/A   Mostly Cloudy
12:55 PM 80.6 °F 80.5 °F 55.4 °F 42% 30.23 in 10.0 mi Calm Calm - N/A   Mostly Cloudy
1:15 PM 82.4 °F 81.7 °F 55.4 °F 39% 30.21 in 10.0 mi East 4.6 mph - N/A   Clear
1:35 PM 82.4 °F 81.7 °F 55.4 °F 39% 30.21 in 10.0 mi ESE 6.9 mph - N/A   Clear
1:55 PM 82.4 °F 81.7 °F 55.4 °F 39% 30.20 in 10.0 mi NE 5.8 mph - N/A   Clear
2:15 PM 84.2 °F 83.0 °F 55.4 °F 37% 30.19 in 10.0 mi East 4.6 mph - N/A   Clear
2:35 PM 86.0 °F 84.9 °F 57.2 °F 37% 30.19 in 10.0 mi East 6.9 mph - N/A   Clear
2:55 PM 86.0 °F 85.4 °F 59.0 °F 40% 30.18 in 10.0 mi ESE 5.8 mph - N/A   Clear
3:55 PM 87.8 °F 87.1 °F 59.0 °F 38% 30.15 in 10.0 mi East 8.1 mph - N/A   Clear
4:15 PM 87.8 °F 87.1 °F 59.0 °F 38% 30.14 in 10.0 mi East 8.1 mph - N/A   Clear
4:35 PM 87.8 °F 87.1 °F 59.0 °F 38% 30.14 in 10.0 mi ESE 10.4 mph - N/A   Clear
5:15 PM 87.8 °F 87.1 °F 59.0 °F 38% 30.12 in 10.0 mi ESE 10.4 mph - N/A   Clear
5:35 PM 87.8 °F 87.1 °F 59.0 °F 38% 30.11 in 10.0 mi East 8.1 mph - N/A   Clear
6:15 PM 87.8 °F 87.1 °F 59.0 °F 38% 30.10 in 10.0 mi ESE 10.4 mph - N/A   Clear
6:55 PM 86.0 °F 85.4 °F 59.0 °F 40% 30.09 in 10.0 mi East 11.5 mph - N/A   Clear
7:15 PM 84.2 °F 83.8 °F 59.0 °F 42% 30.09 in 10.0 mi East 11.5 mph - N/A   Clear
7:35 PM 82.4 °F 82.5 °F 59.0 °F 45% 30.10 in 10.0 mi East 10.4 mph - N/A   Clear
7:55 PM 80.6 °F 81.1 °F 59.0 °F 48% 30.10 in 10.0 mi East 9.2 mph - N/A   Clear
8:15 PM 80.6 °F 81.1 °F 59.0 °F 48% 30.10 in 10.0 mi East 9.2 mph - N/A   Clear
8:35 PM 78.8 °F - 59.0 °F 51% 30.10 in 10.0 mi East 9.2 mph - N/A   Clear
8:55 PM 77.0 °F - 59.0 °F 54% 30.11 in 10.0 mi East 9.2 mph - N/A   Clear
9:35 PM 77.0 °F - 57.2 °F 50% 30.12 in 10.0 mi East 9.2 mph - N/A   Clear
9:55 PM 75.2 °F - 57.2 °F 53% 30.13 in 10.0 mi East 9.2 mph - N/A   Clear
10:15 PM 73.4 °F - 59.0 °F 61% 30.14 in 10.0 mi East 8.1 mph - N/A   Clear
10:35 PM 73.4 °F - 59.0 °F 61% 30.15 in 10.0 mi ESE 9.2 mph - N/A   Clear
10:55 PM 73.4 °F - 59.0 °F 61% 30.15 in 10.0 mi ESE 9.2 mph - N/A   Clear
11:15 PM 73.4 °F - 57.2 °F 57% 30.15 in 10.0 mi ESE 9.2 mph - N/A   Clear
11:35 PM 73.4 °F - 57.2 °F 57% 30.15 in 10.0 mi ESE 8.1 mph - N/A   Clear
11:55 PM 73.4 °F - 55.4 °F 53% 30.16 in 10.0 mi ESE 10.4 mph - N/A   Clear